period_start,C,m1,H,J0,J1,J2,J3,J4,J5,JA,JB,JC,JD,JJ,JK,JN,#
2014-03-21 00:00:13,0.14,4.07,0.00,22.94,27.87,30.83,6.14,32.54,1017.44,2036.00,2114.22,2348.71,2543.01,350.47,324.63,22.02,0000 0000 0000 0000 000000
2014-03-21 00:01:13,0.15,4.07,0.00,22.93,27.87,30.84,6.15,32.75,1017.49,2036.00,2114.12,2348.35,2542.97,350.43,324.72,22.02,0000 0000 0000 0000 000000
2014-03-21 00:02:14,0.19,4.07,0.00,22.92,27.87,30.79,6.07,32.58,1017.50,2036.00,2114.04,2348.14,2542.61,349.76,324.11,22.03,0000 0000 0000 0000 000000
2014-03-21 00:03:14,0.16,4.07,0.00,22.93,27.87,30.81,5.90,32.71,1017.46,2036.00,2113.97,2348.05,2542.24,349.19,323.79,22.04,0000 0000 0000 0000 000000
2014-03-21 00:04:14,0.13,4.07,0.00,22.94,27.87,30.81,6.01,32.83,1017.41,2036.00,2113.62,2348.02,2542.08,350.00,324.28,22.04,0000 0000 0000 0000 000000
2014-03-21 00:05:14,0.14,4.07,0.00,22.94,27.88,30.82,6.12,32.79,1017.34,2036.00,2113.41,2347.98,2542.02,349.75,324.20,22.05,0000 0000 0000 0000 000000
2014-03-21 00:06:15,0.07,4.07,0.00,22.94,27.88,30.80,6.08,32.79,1017.23,2036.00,2113.16,2347.74,2541.99,350.63,324.81,22.05,0000 0000 0000 0000 000000
2014-03-21 00:07:15,0.15,4.07,0.00,22.95,27.88,30.80,6.15,32.88,1017.17,2036.00,2113.05,2347.38,2541.89,350.01,324.47,22.06,0000 0000 0000 0000 000000
2014-03-21 00:08:15,0.18,4.07,0.00,22.96,27.89,30.81,6.06,32.71,1017.14,2036.00,2112.82,2347.14,2541.51,350.36,324.51,22.07,0000 0000 0000 0000 000000
2014-03-21 00:09:15,0.23,4.07,0.00,22.97,27.89,30.79,5.97,32.63,1017.14,2036.00,2112.35,2347.05,2541.20,349.50,323.72,22.07,0000 0000 0000 0000 000000
2014-03-21 00:10:16,0.22,4.07,0.00,22.97,27.89,30.79,6.16,32.79,1017.11,2036.00,2112.13,2347.00,2541.07,350.53,324.57,22.08,0000 0000 0000 0000 000000
2014-03-21 00:11:16,0.09,4.08,0.00,22.98,27.89,30.78,5.92,32.83,1017.11,2036.00,2111.98,2346.93,2541.03,350.40,324.57,22.08,0000 0000 0000 0000 000000
2014-03-21 00:12:16,0.08,4.08,0.00,22.99,27.90,30.79,6.18,32.75,1017.12,2036.00,2111.56,2346.63,2540.88,350.24,324.45,22.09,0000 0000 0000 0000 000000
2014-03-21 00:13:16,0.29,4.08,0.00,22.99,27.90,30.76,5.94,32.83,1017.12,2036.00,2111.21,2346.27,2540.44,349.76,323.91,22.10,0000 0000 0000 0000 000000
2014-03-21 00:14:17,0.30,4.08,0.00,23.00,27.90,30.80,6.08,32.83,1017.13,2036.00,2111.07,2346.09,2540.16,349.82,323.96,22.10,0000 0000 0000 0000 000000
2014-03-21 00:15:17,0.13,4.08,0.00,23.00,27.90,30.80,6.00,32.75,1017.12,2036.00,2111.03,2346.03,2540.05,349.43,323.32,22.11,0000 0000 0000 0000 000000
2014-03-21 00:16:17,0.05,4.08,0.00,23.00,27.90,30.79,5.85,32.63,1017.12,2036.00,2111.00,2346.00,2540.02,349.60,323.76,22.11,0000 0000 0000 0000 000000
2014-03-21 00:17:17,0.02,4.08,0.00,23.00,27.90,30.80,5.99,32.83,1017.13,2036.00,2110.91,2345.95,2539.99,349.24,323.43,22.12,0000 0000 0000 0000 000000
2014-03-21 00:18:17,0.06,4.08,0.00,23.01,27.90,30.79,6.02,32.92,1017.14,2036.00,2110.49,2345.70,2539.84,350.04,324.36,22.12,0000 0000 0000 0000 000000
2014-03-21 00:19:18,0.24,4.08,0.00,23.00,27.90,30.77,5.98,32.71,1017.11,2036.00,2110.18,2345.33,2539.51,349.14,323.33,22.13,0000 0000 0000 0000 000000
2014-03-21 00:20:18,0.27,4.08,0.00,23.01,27.90,30.80,6.08,32.71,1017.13,2036.00,2110.06,2345.12,2539.20,350.61,324.69,22.14,0000 0000 0000 0000 000000
2014-03-21 00:21:18,0.17,4.09,0.00,23.02,27.90,30.81,5.97,32.79,1017.13,2036.00,2109.88,2345.03,2539.07,349.34,323.51,22.14,0000 0000 0000 0000 000000
2014-03-21 00:22:18,0.10,4.09,0.00,23.02,27.90,30.81,6.16,32.79,1017.13,2036.00,2109.45,2344.99,2539.02,350.93,324.57,22.15,0000 0000 0000 0000 000000
2014-03-21 00:23:19,0.14,4.09,0.00,23.02,27.90,30.78,6.13,32.79,1017.11,2036.00,2109.17,2344.91,2538.92,350.60,324.66,22.15,0000 0000 0000 0000 000000
2014-03-21 00:24:19,0.14,4.09,0.00,23.02,27.90,30.81,6.00,32.88,1017.11,2036.00,2109.06,2344.50,2538.54,348.73,323.91,22.16,0000 0000 0000 0000 000000
2014-03-21 00:25:19,0.25,4.09,0.00,23.03,27.90,30.80,6.13,32.79,1017.11,2036.00,2108.93,2344.18,2538.20,350.47,324.52,22.17,0000 0000 0000 0000 000000
2014-03-21 00:26:19,0.22,4.09,0.00,23.04,27.91,30.78,6.12,32.92,1017.11,2036.00,2108.47,2344.06,2538.07,350.69,324.71,22.17,0000 0000 0000 0000 000000
2014-03-21 00:27:20,0.19,4.09,0.00,23.04,27.92,30.74,5.98,32.88,1017.11,2036.00,2108.18,2344.01,2538.02,349.07,322.90,22.18,0000 0000 0000 0000 000000
2014-03-21 00:28:20,0.10,4.09,0.00,23.05,27.92,30.79,6.10,32.96,1017.11,2036.00,2108.07,2343.97,2537.89,350.21,324.27,22.18,0000 0000 0000 0000 000000
2014-03-21 00:29:20,0.08,4.09,0.00,23.06,27.92,30.78,6.02,32.79,1017.11,2036.00,2107.97,2343.73,2537.45,350.01,323.82,22.19,0000 0000 0000 0000 000000
2014-03-21 00:30:20,0.20,4.09,0.00,23.07,27.92,30.75,6.20,32.83,1017.11,2036.00,2107.61,2343.35,2537.17,350.19,324.01,22.19,0000 0000 0000 0000 000000
2014-03-21 00:31:21,0.30,4.10,0.00,23.07,27.92,30.72,6.10,32.88,1017.11,2036.00,2107.24,2343.15,2537.06,350.13,324.37,22.20,0000 0000 0000 0000 000000
2014-03-21 00:32:21,0.19,4.10,0.00,23.07,27.92,30.75,6.00,32.92,1017.11,2035.99,2107.07,2343.05,2537.02,350.14,324.19,22.21,0000 0000 0000 0000 000000
2014-03-21 00:33:21,0.07,4.10,0.00,23.08,27.92,30.81,6.06,32.92,1017.11,2035.99,2106.97,2342.98,2536.96,350.20,324.22,22.21,0000 0000 0000 0000 000000
2014-03-21 00:34:21,0.07,4.10,0.00,23.09,27.92,30.79,6.16,32.88,1017.10,2035.99,2106.65,2342.97,2536.65,349.84,324.01,22.22,0000 0000 0000 0000 000000
2014-03-21 00:35:22,0.16,4.10,0.00,23.09,27.92,30.76,5.96,32.58,1017.10,2035.99,2106.29,2342.70,2536.30,349.57,323.62,22.22,0000 0000 0000 0000 000000
2014-03-21 00:36:22,0.27,4.10,0.00,23.09,27.93,30.77,6.08,32.75,1017.09,2035.99,2106.10,2342.31,2536.12,350.51,324.48,22.23,0000 0000 0000 0000 000000
2014-03-21 00:37:22,0.20,4.10,0.00,23.09,27.93,30.74,5.95,32.67,1017.08,2035.99,2106.02,2342.12,2536.04,349.92,323.48,22.24,0000 0000 0000 0000 000000
2014-03-21 00:38:22,0.09,4.10,0.00,23.12,27.94,30.76,5.83,32.83,1017.07,2035.99,2105.97,2342.04,2536.00,348.83,322.83,22.24,0000 0000 0000 0000 000000
2014-03-21 00:39:23,0.06,4.10,0.00,23.13,27.94,30.79,5.98,32.79,1017.07,2035.99,2105.76,2341.99,2535.93,349.27,323.53,22.25,0000 0000 0000 0000 000000
2014-03-21 00:40:23,0.10,4.10,0.00,23.14,27.95,30.79,6.14,32.92,1017.09,2035.99,2105.42,2341.97,2535.66,349.44,323.45,22.25,0000 0000 0000 0000 000000
2014-03-21 00:41:23,0.15,4.10,0.00,23.14,27.95,30.77,6.21,32.96,1017.10,2035.99,2105.17,2341.78,2535.34,350.94,324.66,22.26,0000 0000 0000 0000 000000
2014-03-21 00:42:24,0.21,4.10,0.00,23.15,27.95,30.73,5.99,32.83,1017.09,2035.99,2105.06,2341.37,2535.13,349.83,324.51,22.27,0000 0000 0000 0000 000000
2014-03-21 00:43:24,0.20,4.11,0.00,23.15,27.95,30.72,6.04,32.75,1017.08,2035.99,2105.02,2341.15,2535.05,350.57,324.55,22.27,0000 0000 0000 0000 000000
2014-03-21 00:44:24,0.10,4.11,0.00,23.15,27.95,30.76,6.08,32.79,1017.09,2035.99,2104.93,2341.05,2535.00,350.25,324.19,22.28,0000 0000 0000 0000 000000
2014-03-21 00:45:25,0.09,4.11,0.00,23.15,27.95,30.77,5.97,32.79,1017.08,2035.99,2104.47,2341.02,2534.87,349.40,323.80,22.28,0000 0000 0000 0000 000000
2014-03-21 00:46:25,0.16,4.11,0.00,23.15,27.96,30.77,6.06,32.88,1017.06,2035.99,2104.17,2340.95,2534.47,350.28,324.21,22.29,0000 0000 0000 0000 000000
2014-03-21 00:47:25,0.20,4.11,0.00,23.14,27.96,30.80,6.10,32.67,1017.05,2035.99,2104.03,2340.63,2534.17,350.33,324.49,22.29,0000 0000 0000 0000 000000
2014-03-21 00:48:26,0.23,4.11,0.00,23.14,27.97,30.78,6.12,32.88,1017.00,2035.99,2103.76,2340.26,2534.06,349.76,323.76,22.30,0000 0000 0000 0000 000000
2014-03-21 00:49:26,0.21,4.11,0.00,23.14,27.97,30.78,6.00,32.96,1016.89,2035.99,2103.49,2340.11,2534.01,349.72,323.86,22.31,0000 0000 0000 0000 000000
2014-03-21 00:50:26,0.12,4.11,0.00,23.14,27.97,30.78,5.99,32.83,1016.83,2035.98,2103.17,2340.04,2533.86,350.34,324.50,22.31,0000 0000 0000 0000 000000
2014-03-21 00:51:26,0.14,4.11,0.00,23.14,27.97,30.74,6.17,32.71,1016.80,2035.99,2103.06,2339.99,2533.46,351.36,325.12,22.32,0000 0000 0000 0000 000000
2014-03-21 00:52:26,0.11,4.11,0.00,23.16,27.97,30.75,6.00,32.83,1016.75,2035.97,2103.01,2339.93,2533.19,349.71,323.57,22.32,0000 0000 0000 0000 000000
2014-03-21 00:53:27,0.08,4.12,0.00,23.17,27.98,30.77,5.91,32.67,1016.72,2035.96,2102.85,2339.76,2533.07,349.81,323.67,22.33,0000 0000 0000 0000 000000
2014-03-21 00:54:27,0.15,4.12,0.00,23.18,27.98,30.75,6.00,32.54,1016.73,2035.96,2102.46,2339.33,2533.02,349.63,323.46,22.34,0000 0000 0000 0000 000000
2014-03-21 00:55:27,0.25,4.12,0.00,23.19,27.99,30.76,6.02,32.79,1016.75,2035.98,2102.18,2339.14,2532.98,350.32,324.10,22.34,0000 0000 0000 0000 000000
2014-03-21 00:56:28,0.17,4.12,0.00,23.20,27.99,30.80,6.06,32.83,1016.78,2035.98,2102.05,2339.05,2532.74,349.56,323.40,22.35,0000 0000 0000 0000 000000
2014-03-21 00:57:28,0.12,4.12,0.00,23.22,28.00,30.77,5.94,32.63,1016.70,2035.99,2101.94,2339.02,2532.36,350.15,323.81,22.35,0000 0000 0000 0000 000000
2014-03-21 00:58:28,0.15,4.12,0.00,23.23,28.00,30.78,5.96,32.42,1016.68,2035.98,2101.50,2338.89,2532.14,350.37,324.09,22.36,0000 0000 0000 0000 000000
2014-03-21 00:59:28,0.20,4.12,0.00,23.23,28.00,30.78,6.06,32.67,1016.65,2035.99,2101.18,2338.49,2532.04,350.39,324.08,22.36,0000 0000 0000 0000 000000
2014-03-21 01:00:29,0.24,4.12,0.00,23.24,28.00,30.75,6.08,32.79,1016.65,2035.98,2101.06,2338.20,2532.00,349.65,323.19,22.37,0000 0000 0000 0000 000000
2014-03-21 01:01:29,0.15,4.12,0.00,23.24,28.00,30.75,5.94,32.67,1016.63,2035.97,2101.01,2338.07,2531.83,349.30,322.94,22.38,0000 0000 0000 0000 000000
2014-03-21 01:02:29,0.10,4.12,0.00,23.24,28.00,30.74,6.05,32.71,1016.63,2035.98,2100.62,2338.01,2531.44,349.96,323.67,22.38,0000 0000 0000 0000 000000
2014-03-21 01:03:30,0.19,4.13,0.00,23.24,28.01,30.76,6.00,32.75,1016.62,2035.96,2100.23,2337.91,2531.18,350.00,323.69,22.39,0000 0000 0000 0000 000000
2014-03-21 01:04:30,0.20,4.13,0.00,23.23,28.02,30.75,5.86,32.79,1016.63,2035.94,2100.08,2337.54,2531.06,349.30,322.75,22.39,0000 0000 0000 0000 000000
2014-03-21 01:05:30,0.19,4.13,0.00,23.23,28.02,30.75,6.07,32.79,1016.63,2035.96,2099.76,2337.22,2530.99,350.36,323.96,22.40,0000 0000 0000 0000 000000
2014-03-21 01:06:31,0.22,4.13,0.00,23.24,28.02,30.75,5.98,32.92,1016.62,2035.98,2099.29,2337.08,2530.79,349.88,323.83,22.41,0000 0000 0000 0000 000000
2014-03-21 01:07:31,0.24,4.13,0.00,23.24,28.02,30.83,5.91,32.75,1016.63,2035.96,2099.11,2337.03,2530.36,349.18,322.57,22.41,0000 0000 0000 0000 000000
2014-03-21 01:08:31,0.14,4.13,0.00,23.24,28.02,30.80,6.10,32.83,1016.62,2035.93,2099.03,2337.00,2530.13,351.09,324.71,22.42,0000 0000 0000 0000 000000
2014-03-21 01:09:32,0.05,4.13,0.00,23.25,28.02,30.80,5.99,32.75,1016.62,2035.91,2098.84,2336.83,2530.05,349.66,323.38,22.42,0000 0000 0000 0000 000000
2014-03-21 01:10:32,0.17,4.13,0.00,23.27,28.03,30.79,6.00,32.92,1016.62,2035.92,2098.36,2336.39,2530.00,350.13,324.01,22.43,0000 0000 0000 0000 000000
2014-03-21 01:11:32,0.29,4.14,0.00,23.27,28.04,30.79,6.05,32.54,1016.62,2035.94,2098.13,2336.15,2529.82,349.70,323.40,22.44,0000 0000 0000 0000 000000
2014-03-21 01:12:32,0.21,4.14,0.00,23.27,28.05,30.79,6.01,32.58,1016.62,2035.96,2098.04,2336.05,2529.48,350.12,323.77,22.44,0000 0000 0000 0000 000000
2014-03-21 01:13:33,0.11,4.14,0.00,23.29,28.05,30.79,6.09,32.88,1016.62,2035.90,2097.92,2336.02,2529.19,350.14,324.09,22.45,0000 0000 0000 0000 000000
2014-03-21 01:14:33,0.07,4.14,0.00,23.29,28.05,30.79,6.13,32.79,1016.62,2035.86,2097.51,2335.99,2529.07,350.71,324.30,22.45,0000 0000 0000 0000 000000
2014-03-21 01:15:34,0.13,4.14,0.00,23.30,28.05,30.78,5.92,32.71,1016.62,2035.84,2097.19,2335.71,2529.02,349.31,323.00,22.46,0000 0000 0000 0000 000000
2014-03-21 01:16:34,0.20,4.14,0.00,23.31,28.05,30.80,6.08,32.79,1016.61,2035.86,2097.07,2335.31,2528.97,350.54,324.33,22.46,0000 0000 0000 0000 000000
2014-03-21 01:17:34,0.17,4.14,0.00,23.32,28.05,30.81,5.96,32.88,1016.62,2035.86,2097.02,2335.14,2528.74,349.59,323.30,22.47,0000 0000 0000 0000 000000
2014-03-21 01:18:34,0.10,4.14,0.00,23.32,28.07,30.84,6.06,32.83,1016.62,2035.78,2096.95,2335.05,2528.34,350.52,324.21,22.48,0000 0000 0000 0000 000000
2014-03-21 01:19:35,0.11,4.14,0.00,23.32,28.07,30.82,6.16,32.79,1016.61,2035.82,2096.58,2335.02,2528.14,350.53,324.04,22.48,0000 0000 0000 0000 000000
2014-03-21 01:20:35,0.16,4.14,0.00,23.32,28.07,30.83,5.91,32.58,1016.62,2035.81,2096.23,2334.97,2528.05,349.68,322.88,22.49,0000 0000 0000 0000 000000
2014-03-21 01:21:35,0.11,4.14,0.00,23.34,28.07,30.81,5.99,32.79,1016.62,2035.71,2096.08,2334.69,2528.01,350.17,323.75,22.49,0000 0000 0000 0000 000000
2014-03-21 01:22:36,0.09,4.14,0.00,23.35,28.07,30.84,5.92,32.75,1016.62,2035.69,2095.99,2334.31,2527.93,350.47,323.57,22.50,0000 0000 0000 0000 000000
2014-03-21 01:23:36,0.12,4.14,0.00,23.37,28.09,30.85,6.09,32.63,1016.62,2035.55,2095.66,2334.11,2527.53,350.71,324.01,22.51,0000 0000 0000 0000 000000
2014-03-21 01:24:36,0.08,4.14,0.00,23.38,28.10,30.83,5.98,32.79,1016.62,2035.43,2095.29,2334.04,2527.22,349.56,323.42,22.51,0000 0000 0000 0000 000000
2014-03-21 01:25:37,0.17,4.14,0.00,23.39,28.10,30.87,6.00,32.67,1016.61,2035.47,2095.11,2333.99,2527.08,350.24,323.42,22.52,0000 0000 0000 0000 000000
2014-03-21 01:26:37,0.07,4.15,0.00,23.40,28.10,30.80,6.05,32.92,1016.61,2035.34,2095.01,2333.80,2527.01,349.99,323.52,22.52,0000 0000 0000 0000 000000
2014-03-21 01:27:37,0.03,4.15,0.00,23.42,28.10,30.83,5.96,32.71,1016.60,2035.26,2094.84,2333.34,2526.79,349.34,322.89,22.53,0000 0000 0000 0000 000000
2014-03-21 01:28:37,0.18,4.15,0.00,23.42,28.11,30.81,6.14,32.83,1016.57,2035.16,2094.43,2333.14,2526.36,350.63,324.07,22.53,0000 0000 0000 0000 000000
2014-03-21 01:29:38,0.15,4.15,0.00,23.42,28.12,30.84,5.96,32.75,1016.57,2035.07,2094.16,2333.05,2526.15,349.76,323.27,22.54,0000 0000 0000 0000 000000
2014-03-21 01:30:38,0.09,4.15,0.00,23.42,28.12,30.83,6.06,32.96,1016.57,2035.06,2094.04,2333.01,2526.05,350.48,323.94,22.55,0000 0000 0000 0000 000000
2014-03-21 01:31:38,0.05,4.15,0.00,23.42,28.12,30.88,6.18,32.92,1016.51,2035.07,2093.96,2332.92,2526.00,351.22,324.28,22.55,0000 0000 0000 0000 000000
2014-03-21 01:32:39,0.10,4.15,0.00,23.41,28.12,30.88,6.03,32.96,1016.45,2035.04,2093.53,2332.55,2525.73,350.08,323.32,22.56,0000 0000 0000 0000 000000
2014-03-21 01:33:39,0.24,4.15,0.00,23.42,28.14,30.88,5.92,32.58,1016.46,2035.04,2093.26,2332.24,2525.42,350.07,323.52,22.56,0000 0000 0000 0000 000000
2014-03-21 01:34:39,0.26,4.15,0.00,23.42,28.15,30.86,5.99,32.63,1016.50,2035.06,2093.10,2332.09,2525.19,348.81,322.37,22.57,0000 0000 0000 0000 000000
2014-03-21 01:35:39,0.15,4.15,0.00,23.42,28.15,30.82,6.00,32.63,1016.53,2035.07,2093.03,2332.03,2525.08,349.71,323.21,22.58,0000 0000 0000 0000 000000
2014-03-21 01:36:40,0.07,4.15,0.00,23.42,28.15,30.81,6.05,32.83,1016.43,2035.06,2092.99,2332.01,2525.03,349.36,323.11,22.58,0000 0000 0000 0000 000000
2014-03-21 01:37:40,0.01,4.15,0.00,23.43,28.15,30.83,6.09,32.88,1016.38,2035.02,2092.76,2331.96,2524.98,350.45,323.92,22.59,0000 0000 0000 0000 000000
2014-03-21 01:38:40,0.09,4.15,0.00,23.44,28.15,30.87,5.98,33.04,1016.44,2035.02,2092.30,2331.75,2524.73,349.21,322.48,22.59,0000 0000 0000 0000 000000
2014-03-21 01:39:41,0.25,4.16,0.00,23.45,28.17,30.88,6.02,32.75,1016.35,2035.01,2092.11,2331.38,2524.31,350.44,323.79,22.60,0000 0000 0000 0000 000000
2014-03-21 01:40:41,0.25,4.16,0.00,23.47,28.17,30.92,5.98,33.08,1016.24,2035.00,2091.72,2331.14,2524.11,350.14,324.02,22.61,0000 0000 0000 0000 000000
2014-03-21 01:41:41,0.23,4.16,0.00,23.48,28.17,30.89,5.95,32.67,1016.16,2035.01,2091.27,2331.05,2524.03,349.34,322.86,22.61,0000 0000 0000 0000 000000
2014-03-21 01:42:41,0.18,4.16,0.00,23.49,28.17,30.89,6.04,32.83,1016.16,2035.02,2091.09,2330.99,2523.99,349.86,323.15,22.62,0000 0000 0000 0000 000000
2014-03-21 01:43:42,0.09,4.16,0.00,23.50,28.17,30.88,6.08,32.67,1016.15,2035.00,2091.01,2330.75,2523.65,350.40,323.32,22.62,0000 0000 0000 0000 000000
2014-03-21 01:44:42,0.18,4.16,0.00,23.52,28.17,30.89,5.95,32.83,1016.14,2035.00,2090.72,2330.34,2523.26,349.04,322.36,22.63,0000 0000 0000 0000 000000
2014-03-21 01:45:42,0.30,4.16,0.00,23.52,28.18,30.88,6.04,33.00,1016.13,2035.01,2090.28,2330.12,2523.08,349.70,322.96,22.63,0000 0000 0000 0000 000000
2014-03-21 01:46:42,0.21,4.16,0.00,23.53,28.19,30.88,5.84,32.63,1016.15,2035.00,2090.10,2330.04,2523.00,349.32,322.77,22.64,0000 0000 0000 0000 000000
2014-03-21 01:47:43,0.08,4.17,0.00,23.54,28.19,30.87,5.95,32.58,1016.15,2035.00,2090.02,2329.98,2522.83,350.08,323.39,22.65,0000 0000 0000 0000 000000
2014-03-21 01:48:43,0.08,4.17,0.00,23.55,28.20,30.88,6.10,32.58,1016.13,2035.00,2089.87,2329.86,2522.46,350.54,323.72,22.65,0000 0000 0000 0000 000000
2014-03-21 01:49:43,0.20,4.17,0.00,23.55,28.20,30.87,5.92,32.67,1016.15,2035.00,2089.49,2329.46,2522.19,349.53,322.79,22.66,0000 0000 0000 0000 000000
2014-03-21 01:50:43,0.28,4.17,0.00,23.55,28.20,30.84,6.27,32.88,1016.14,2035.00,2089.20,2329.17,2522.08,350.91,324.06,22.66,0000 0000 0000 0000 000000
2014-03-21 01:51:44,0.19,4.17,0.00,23.55,28.20,30.86,5.92,32.71,1016.16,2035.00,2089.08,2329.06,2522.02,350.14,322.97,22.67,0000 0000 0000 0000 000000
2014-03-21 01:52:44,0.08,4.17,0.00,23.55,28.21,30.85,6.09,32.92,1016.13,2035.00,2089.00,2329.02,2521.95,350.03,323.25,22.68,0000 0000 0000 0000 000000
2014-03-21 01:53:44,0.05,4.17,0.00,23.55,28.22,30.88,6.08,32.67,1016.15,2035.00,2088.84,2329.00,2521.70,350.38,323.66,22.68,0000 0000 0000 0000 000000
2014-03-21 01:54:44,0.14,4.17,0.00,23.57,28.22,30.89,6.02,32.38,1016.14,2035.00,2088.41,2328.76,2521.31,350.65,323.95,22.69,0000 0000 0000 0000 000000
2014-03-21 01:55:45,0.30,4.17,0.00,23.57,28.22,30.91,6.07,32.79,1016.14,2035.00,2088.15,2328.34,2521.11,349.77,322.68,22.69,0000 0000 0000 0000 000000
2014-03-21 01:56:45,0.23,4.17,0.00,23.57,28.22,30.91,6.00,32.58,1016.17,2035.00,2088.04,2328.13,2521.04,350.75,324.12,22.70,0000 0000 0000 0000 000000
2014-03-21 01:57:45,0.10,4.18,0.00,23.59,28.23,30.93,6.11,32.88,1016.14,2035.00,2087.92,2328.05,2520.99,349.79,322.68,22.70,0000 0000 0000 0000 000000
2014-03-21 01:58:46,0.11,4.18,0.00,23.59,28.24,30.92,6.13,32.83,1016.13,2035.00,2087.40,2328.01,2520.72,350.24,323.64,22.71,0000 0000 0000 0000 000000
2014-03-21 01:59:46,0.19,4.18,0.00,23.60,28.25,30.93,5.98,32.83,1016.15,2035.00,2087.14,2327.96,2520.34,350.23,323.17,22.72,0000 0000 0000 0000 000000
2014-03-21 02:00:46,0.17,4.18,0.00,23.60,28.25,30.91,5.88,32.54,1016.15,2035.00,2086.95,2327.58,2520.12,349.13,322.81,22.72,0000 0000 0000 0000 000000
2014-03-21 02:01:47,0.26,4.18,0.00,23.60,28.25,30.91,5.91,32.75,1016.13,2034.99,2086.48,2327.22,2520.04,349.58,322.61,22.73,0000 0000 0000 0000 000000
2014-03-21 02:02:47,0.24,4.18,0.00,23.60,28.25,30.88,6.11,32.83,1016.16,2034.99,2086.17,2327.08,2519.99,350.19,323.02,22.73,0000 0000 0000 0000 000000
2014-03-21 02:03:47,0.13,4.18,0.00,23.60,28.26,30.88,5.95,32.67,1016.15,2034.99,2086.08,2327.03,2519.92,349.84,323.02,22.74,0000 0000 0000 0000 000000
2014-03-21 02:04:48,0.06,4.18,0.00,23.59,28.27,30.87,5.92,32.71,1016.14,2034.99,2086.03,2326.99,2519.65,349.97,323.14,22.75,0000 0000 0000 0000 000000
2014-03-21 02:05:48,0.09,4.18,0.00,23.58,28.27,30.86,5.95,32.71,1016.14,2034.98,2085.91,2326.85,2519.29,349.91,323.10,22.75,0000 0000 0000 0000 000000
2014-03-21 02:06:48,0.18,4.18,0.00,23.57,28.27,30.86,6.02,32.75,1016.14,2034.97,2085.72,2326.51,2519.10,350.04,323.22,22.76,0000 0000 0000 0000 000000
2014-03-21 02:07:48,0.15,4.18,0.00,23.57,28.28,30.86,5.83,32.83,1016.16,2034.96,2085.48,2326.24,2519.01,349.22,322.48,22.76,0000 0000 0000 0000 000000
2014-03-21 02:08:49,0.20,4.19,0.00,23.57,28.28,30.83,6.05,32.67,1016.13,2034.98,2085.17,2326.08,2518.75,349.73,322.94,22.77,0000 0000 0000 0000 000000
2014-03-21 02:09:49,0.21,4.19,0.00,23.55,28.30,30.84,6.00,32.21,1016.13,2034.95,2084.97,2326.02,2518.38,349.72,322.95,22.78,0000 0000 0000 0000 000000
2014-03-21 02:10:49,0.14,4.19,0.00,23.55,28.30,30.89,5.90,32.75,1016.13,2034.96,2084.52,2325.89,2518.15,349.36,322.62,22.78,0000 0000 0000 0000 000000
2014-03-21 02:11:50,0.22,4.19,0.00,23.54,28.30,30.91,5.98,32.71,1016.14,2034.95,2084.20,2325.54,2518.05,349.06,322.62,22.79,0000 0000 0000 0000 000000
2014-03-21 02:12:50,0.24,4.19,0.00,23.53,28.30,30.93,6.10,32.71,1016.13,2034.87,2084.07,2325.22,2518.00,349.58,323.43,22.79,0000 0000 0000 0000 000000
2014-03-21 02:13:50,0.08,4.19,0.00,23.52,28.31,30.91,6.04,32.92,1016.14,2034.85,2084.02,2325.09,2517.97,349.73,323.52,22.80,0000 0000 0000 0000 000000
2014-03-21 02:14:50,0.00,4.19,0.00,23.52,28.32,30.91,6.05,32.67,1016.14,2034.75,2084.01,2325.03,2517.81,350.72,323.62,22.80,0000 0000 0000 0000 000000
2014-03-21 02:15:51,0.01,4.19,0.00,23.52,28.32,30.91,6.07,32.83,1016.13,2034.73,2084.00,2325.00,2517.48,349.84,323.72,22.81,0000 0000 0000 0000 000000
2014-03-21 02:16:51,0.05,4.19,0.00,23.50,28.32,30.92,5.98,32.96,1016.14,2034.64,2083.78,2324.97,2517.20,349.85,323.54,22.82,0000 0000 0000 0000 000000
2014-03-21 02:17:51,0.05,4.19,0.00,23.50,28.32,30.93,5.88,32.71,1016.19,2034.61,2083.34,2324.79,2517.07,349.22,322.57,22.82,0000 0000 0000 0000 000000
2014-03-21 02:18:51,0.17,4.19,0.00,23.48,28.32,31.00,6.18,32.63,1016.18,2034.48,2083.13,2324.42,2517.02,350.38,323.64,22.83,0000 0000 0000 0000 000000
2014-03-21 02:19:51,0.08,4.19,0.00,23.47,28.33,31.05,6.09,32.63,1016.16,2034.32,2083.04,2324.15,2516.87,350.07,323.37,22.83,0000 0000 0000 0000 000000
2014-03-21 02:20:52,0.01,4.19,0.00,23.46,28.34,31.10,5.99,32.88,1016.18,2034.22,2082.74,2324.05,2516.48,350.04,323.50,22.84,0000 0000 0000 0000 000000
2014-03-21 02:21:52,0.10,4.19,0.00,23.45,28.35,31.09,5.95,32.83,1016.17,2034.15,2082.30,2324.01,2516.18,349.16,322.56,22.85,0000 0000 0000 0000 000000
2014-03-21 02:22:52,0.13,4.20,0.00,23.45,28.35,31.11,5.96,32.92,1016.14,2034.14,2082.10,2323.77,2516.07,349.89,323.22,22.85,0000 0000 0000 0000 000000
2014-03-21 02:23:52,0.19,4.20,0.00,23.43,28.35,31.13,6.00,32.71,1016.14,2034.10,2081.97,2323.33,2515.99,350.14,323.48,22.86,0000 0000 0000 0000 000000
2014-03-21 02:24:52,0.17,4.20,0.00,23.43,28.35,31.17,6.07,32.75,1016.13,2034.13,2081.49,2323.13,2515.78,349.49,322.88,22.86,0000 0000 0000 0000 000000
2014-03-21 02:25:53,0.29,4.20,0.00,23.42,28.35,31.23,6.08,32.92,1016.15,2034.13,2081.18,2323.04,2515.39,349.88,323.04,22.87,0000 0000 0000 0000 000000
2014-03-21 02:26:53,0.17,4.20,0.00,23.42,28.36,31.24,5.94,32.79,1016.16,2034.12,2081.05,2323.00,2515.14,350.10,323.45,22.87,0000 0000 0000 0000 000000
2014-03-21 02:27:53,0.08,4.20,0.00,23.41,28.37,31.20,5.99,32.75,1016.16,2034.06,2080.69,2322.75,2515.05,349.59,323.00,22.88,0000 0000 0000 0000 000000
2014-03-21 02:28:53,0.24,4.20,0.00,23.40,28.37,31.22,6.19,32.79,1016.14,2034.05,2080.26,2322.31,2514.85,350.74,324.07,22.89,0000 0000 0000 0000 000000
2014-03-21 02:29:54,0.27,4.20,0.00,23.37,28.37,31.24,6.07,32.88,1016.14,2034.04,2080.07,2322.11,2514.41,350.44,323.23,22.89,0000 0000 0000 0000 000000
2014-03-21 02:30:54,0.19,4.20,0.00,23.36,28.37,31.28,5.85,32.79,1016.14,2034.01,2079.65,2322.03,2514.15,350.08,323.28,22.90,0000 0000 0000 0000 000000
2014-03-21 02:31:54,0.19,4.21,0.00,23.35,28.37,31.28,5.96,33.00,1016.14,2034.00,2079.24,2321.90,2514.03,350.11,323.49,22.90,0000 0000 0000 0000 000000
2014-03-21 02:32:54,0.18,4.21,0.00,23.33,28.37,31.28,6.04,32.58,1016.13,2034.00,2079.08,2321.60,2513.97,350.33,324.16,22.91,0000 0000 0000 0000 000000
2014-03-21 02:33:55,0.16,4.21,0.00,23.32,28.37,31.30,6.03,32.96,1016.13,2034.00,2078.91,2321.26,2513.70,350.31,323.75,22.92,0000 0000 0000 0000 000000
2014-03-21 02:34:55,0.24,4.21,0.00,23.32,28.38,31.28,5.89,32.96,1016.13,2034.00,2078.42,2321.09,2513.31,350.24,323.54,22.92,0000 0000 0000 0000 000000
2014-03-21 02:35:55,0.25,4.21,0.00,23.30,28.38,31.29,6.03,32.79,1016.14,2034.02,2078.15,2321.03,2513.11,349.65,323.17,22.93,0000 0000 0000 0000 000000